This is the latest recevied weather packets stored in our database for station/object JF2ZGN-13. If no packets are shown the sender has not sent any weather packets the latest 10 day(s).
| Time | Temp. | Humidity | Pressure | Rain* | Wind** | Luminosity | Snow |
|---|---|---|---|---|---|---|---|
| 1787841542 | 20.56° C | 58% | 908 hPa | 0.51 mm | - | - | - |
| 1787840942 | 20.56° C | 56% | 908 hPa | 0.51 mm | - | - | - |
| 1787840341 | 20.56° C | 53% | 908.3 hPa | 0.51 mm | - | - | - |
| 1787839741 | 20.56° C | 51% | 908.3 hPa | 0.51 mm | - | - | - |
| 1787839140 | 20.56° C | 76% | 908.4 hPa | 0 mm | - | - | - |
| 1787838539 | 20.56° C | 77% | 908.8 hPa | 0 mm | - | - | - |
| 1787837939 | 20.56° C | 79% | 908.7 hPa | 0 mm | - | - | - |
| 1787837339 | 21.11° C | 80% | 909 hPa | 0 mm | - | - | - |
| 1787836738 | 21.11° C | 80% | 909 hPa | 0 mm | - | - | - |
| 1787836138 | 20.56° C | 80% | 908.8 hPa | 0 mm | - | - | - |
| 1787835537 | 21.11° C | 80% | 908.9 hPa | 0 mm | - | - | - |
| 1787834937 | 21.11° C | 79% | 908.9 hPa | 0 mm | - | - | - |
| 1787834336 | 20.56° C | 80% | 908.7 hPa | 0 mm | - | - | - |
| 1787833736 | 20.56° C | 77% | 908.9 hPa | 0 mm | - | - | - |
| 1787833135 | 20.56° C | 81% | 908.9 hPa | 0 mm | - | - | - |
| 1787832535 | 20.56° C | 87% | 908.9 hPa | 0 mm | - | - | - |
| 1787831934 | 20.56° C | 87% | 909.1 hPa | 0 mm | - | - | - |
| 1787831334 | 21.11° C | 85% | 909.3 hPa | 0 mm | - | - | - |
| 1787830734 | 21.11° C | 83% | 909.2 hPa | 0 mm | - | - | - |
| 1787830133 | 20.56° C | 82% | 909.3 hPa | 0 mm | - | - | - |
| 1787829534 | 20.56° C | 84% | 909.3 hPa | 0 mm | - | - | - |
| 1787828932 | 20.56° C | 85% | 909.3 hPa | 0 mm | - | - | - |
| 1787828332 | 20.56° C | 86% | 909.3 hPa | 0 mm | - | - | - |
| 1787827731 | 20.56° C | 87% | 909 hPa | 0 mm | - | - | - |
| 1787827131 | 20.56° C | 87% | 909 hPa | 0 mm | - | - | - |
* Rain since midnight (hover to see other rain measurements)
** Current wind speed in m/s (hover to see current wind gust speed)